Theta_e
344 353 364 364 362 361 359 357 358 358 360 360 361 361 360 361 361 361 359 359 360 357 355 355 356 357 358 359 359 360 361 361 360 359 358 358 357 358 359 358 356 353 357
347 355 364 365 363 360 360 358 359 360 360 360 358 358 358 359 358 359 358 358 358 356 355 354 353 354 355 356 358 358 358 360 360 359 358 357 357 356 356 357 356 353 356
350 357 361 363 363 361 360 359 359 360 360 360 358 357 358 358 357 358 360 360 359 357 356 355 352 353 355 356 356 357 357 357 357 357 356 349 350 356 355 356 356 355 355
354 357 358 360 363 362 360 359 360 359 360 360 359 357 357 358 358 358 360 360 358 357 356 355 354 352 353 355 355 356 355 355 355 354 347 347 348 355 356 355 356 355 355
354 357 358 362 362 361 359 359 360 359 360 359 358 358 358 359 359 360 361 360 358 357 356 355 355 356 355 355 355 356 355 355 351 346 341 344 346 353 354 355 354 354 354
353 356 361 362 362 361 359 358 359 358 359 359 358 358 359 359 360 361 361 360 360 358 357 356 356 356 356 356 356 356 356 355 346 337 340 347 344 353 352 352 352 352 353
353 357 359 362 362 361 359 358 358 359 361 360 359 358 359 359 361 361 361 361 360 359 358 358 358 358 356 356 356 356 355 357 341 335 340 344 345 352 349 350 351 351 352
352 356 357 362 361 360 359 359 359 360 360 360 360 360 359 360 360 359 359 358 358 359 359 357 357 353 354 354 353 353 354 356 342 339 342 343 350 352 349 350 350 350 350
352 354 355 356 358 360 359 359 359 360 360 360 360 360 359 359 359 358 358 358 357 357 357 357 355 354 354 354 355 355 358 348 338 341 344 342 351 349 350 349 348 347 347
350 351 350 354 353 354 354 359 359 360 360 360 360 358 358 358 357 357 355 356 356 356 356 355 355 355 354 355 355 355 359 350 338 341 342 342 351 348 348 347 347 347 346
347 348 349 348 350 351 352 353 358 358 358 359 357 358 355 349 350 351 352 355 357 357 357 356 356 355 355 355 355 354 353 344 340 340 342 350 352 349 349 349 349 349 347
340 345 346 346 348 350 353 349 349 351 351 351 351 350 346 344 344 347 350 355 357 357 357 356 356 356 354 346 350 351 345 345 343 341 343 353 353 351 350 350 349 349 348
338 343 345 344 346 348 348 347 346 345 348 348 348 345 342 342 341 342 340 344 346 353 347 351 350 348 345 342 347 342 343 343 344 345 348 355 355 352 351 351 351 350 349
336 340 344 345 345 344 346 347 346 345 347 344 345 344 339 337 335 335 336 337 342 342 341 341 342 344 341 341 344 342 341 340 339 343 350 356 355 354 353 352 351 351 350
333 337 341 343 344 342 345 345 345 345 345 344 342 342 340 336 334 334 335 337 339 338 337 336 337 340 339 341 343 342 338 337 335 337 344 357 356 356 355 354 353 353 352
333 336 340 341 341 342 344 343 343 344 344 342 340 341 341 336 334 334 335 337 337 337 335 334 334 335 339 339 341 341 338 338 337 336 342 352 356 356 357 356 355 355 354
334 335 337 338 338 339 340 339 340 342 342 341 340 340 341 338 335 334 334 335 337 336 336 333 332 336 336 336 340 340 337 338 339 341 345 349 353 356 357 357 357 357 356
331 333 335 339 337 337 340 337 337 338 339 340 338 337 340 340 338 336 336 334 335 335 333 334 333 333 333 333 336 338 339 338 338 345 346 346 347 350 356 357 357 356 356
331 332 332 334 333 335 336 335 335 337 337 338 337 336 338 340 341 338 337 337 333 333 333 333 332 332 332 332 334 334 336 335 337 347 346 345 342 344 345 354 353 352 352
333 334 330 330 332 333 333 333 332 333 334 335 334 336 338 339 342 340 339 336 333 333 333 332 332 330 332 333 336 336 335 335 336 343 342 342 337 338 338 341 341 342 347
329 329 330 333 331 335 335 332 331 330 333 336 335 334 337 340 341 338 338 336 333 333 332 333 330 329 332 336 334 332 333 333 335 339 341 340 337 336 335 336 336 335 342
326 327 326 327 328 332 336 336 338 338 337 337 330 330 332 334 334 334 333 334 331 331 330 329 331 330 333 334 327 325 324 329 333 334 338 338 337 336 335 332 331 330 332
319 321 324 323 323 325 328 333 336 337 336 332 331 330 331 333 335 332 330 329 329 330 327 326 327 326 327 333 328 324 319 319 327 332 333 335 334 334 334 329 327 327 326
316 317 317 318 318 321 324 325 329 329 327 328 329 329 330 331 330 333 331 331 330 329 327 327 329 326 326 323 332 332 325 321 319 320 329 331 332 332 330 326 325 324 322
314 313 313 313 313 315 317 321 320 321 319 323 322 320 322 326 322 324 332 331 331 329 328 327 326 325 326 325 328 326 326 323 322 320 317 325 330 332 331 327 325 323 321
313 312 311 310 309 311 312 312 313 313 312 312 312 314 315 315 314 316 319 320 327 327 326 326 325 325 326 327 328 329 327 324 321 319 317 320 324 328 331 330 324 323 320
Wind_Speed
7 9 17 17 19 19 19 20 19 18 17 16 17 17 16 16 16 16 16 16 14 13 13 13 13 13 14 16 16 17 16 14 14 17 17 16 16 16 15 17 16 12 16
14 11 19 18 18 20 19 19 19 18 16 15 16 17 16 16 16 15 15 16 14 14 14 14 14 14 14 16 17 17 16 16 15 16 16 16 16 16 15 16 17 14 16
14 12 16 20 19 19 18 18 18 17 16 15 15 15 15 15 16 15 15 14 15 15 14 14 15 14 15 16 16 17 16 15 15 16 15 6 8 16 16 16 16 14 15
14 12 14 22 19 19 19 18 18 17 17 16 16 15 15 14 14 15 14 14 15 15 15 14 15 15 15 15 16 16 16 14 14 13 4 7 11 16 16 16 15 15 15
13 12 15 21 19 19 19 18 18 17 16 16 17 16 15 14 13 13 12 12 15 14 15 15 15 15 15 15 14 12 10 10 13 9 6 5 7 12 16 15 14 16 15
15 12 19 21 21 20 20 19 18 17 16 15 15 16 15 14 12 11 11 11 12 13 13 14 14 13 12 12 12 10 8 9 12 6 5 6 5 12 14 14 14 14 15
14 12 15 21 21 20 20 19 18 17 16 15 15 15 14 13 11 10 9 8 10 12 12 12 11 10 11 10 8 8 7 10 7 6 5 4 4 12 14 14 14 14 13
16 11 12 19 19 19 19 19 17 16 16 15 15 14 14 12 11 9 8 9 8 9 9 10 8 8 7 6 5 5 4 8 10 8 5 4 8 12 14 14 13 13 13
15 10 10 11 15 17 17 17 16 15 15 14 13 13 12 12 11 10 7 7 7 6 6 7 7 7 7 4 4 5 8 15 8 7 7 4 10 12 14 14 13 13 14
12 9 9 9 9 9 9 16 16 16 15 14 13 12 11 11 10 10 9 7 7 7 7 6 5 6 7 5 5 5 7 16 7 7 4 3 12 12 13 13 13 11 12
9 10 10 10 9 8 7 10 13 15 15 14 13 13 9 4 6 7 8 8 8 7 6 6 5 4 6 6 5 8 10 4 6 5 4 14 13 14 13 12 12 11 11
13 14 8 8 11 11 9 7 5 7 4 4 4 5 4 5 4 5 7 8 8 8 8 7 6 6 6 3 3 6 2 5 4 4 4 16 14 14 14 13 13 12 11
13 10 10 8 8 9 8 6 4 3 3 3 5 4 3 3 2 2 2 2 3 8 3 4 4 3 4 4 4 4 4 4 3 3 8 15 15 15 15 14 13 13 12
14 13 10 9 9 6 6 7 7 5 4 3 4 5 4 2 3 3 3 3 3 2 3 3 2 4 5 5 5 5 5 5 4 4 8 16 14 15 15 15 14 13 13
15 14 13 11 10 7 9 7 7 7 6 6 4 5 4 4 4 3 3 3 3 3 3 3 3 4 4 4 5 6 6 6 5 4 4 17 15 14 15 15 15 15 14
12 13 12 13 10 9 8 8 8 7 6 5 4 6 7 5 4 4 4 4 4 4 4 4 5 4 4 3 5 6 7 6 5 4 4 9 16 15 15 15 15 15 15
13 13 15 14 10 9 8 7 6 7 6 7 7 7 8 7 6 6 4 4 5 4 5 4 4 3 4 4 6 6 3 4 5 7 6 5 7 13 13 14 15 16 16
7 12 12 11 9 8 8 6 5 5 7 7 5 4 7 6 6 6 5 5 5 4 4 4 4 3 4 6 6 7 4 4 4 5 5 4 4 5 10 13 12 12 12
5 10 11 10 9 8 6 5 4 6 5 5 4 5 7 8 8 7 6 7 4 4 4 4 3 4 6 5 5 3 2 3 5 5 6 5 5 4 3 12 12 11 10
8 5 7 6 8 7 4 4 2 3 4 4 2 3 3 6 8 7 6 4 2 2 3 4 5 3 3 7 5 2 2 3 3 4 5 3 3 3 2 2 3 3 10
10 10 7 8 7 6 3 3 3 4 2 3 3 4 3 1 1 5 3 5 4 3 3 6 4 6 3 4 2 3 2 1 2 3 4 5 5 5 5 4 3 2 3
10 9 9 7 4 4 3 2 3 3 3 4 3 5 4 5 4 3 2 3 3 4 5 9 9 4 3 7 5 1 2 3 2 3 3 6 7 5 5 5 5 5 4
10 9 8 7 5 3 3 2 3 5 4 3 2 3 4 4 4 4 3 4 3 3 2 2 6 7 5 6 6 5 3 5 2 2 7 6 7 6 6 5 5 5 5
6 7 7 8 9 9 7 5 4 2 3 2 2 1 0 1 1 3 4 2 3 2 4 3 3 4 4 6 9 7 1 3 5 2 2 7 5 8 7 5 6 6 6
7 6 6 7 9 8 8 7 6 7 5 3 4 6 6 7 9 8 3 3 4 3 3 3 8 8 5 5 0 4 3 2 4 3 3 4 6 8 8 8 7 7 7
6 6 6 7 7 7 7 9 10 9 7 6 6 5 4 4 4 7 7 6 4 4 5 7 7 8 7 3 5 8 5 3 3 3 0 3 8 6 9 8 8 8 8
Wind_Direction
181 166 162 150 136 127 123 119 114 109 106 105 106 106 107 111 116 119 121 117 114 113 110 106 103 99 97 99 101 99 98 97 100 105 103 100 98 94 94 92 94 94 93
147 162 157 151 140 132 128 123 119 116 111 110 112 111 110 113 116 121 123 122 121 118 116 113 111 109 109 109 110 108 102 94 99 111 108 103 104 102 100 95 98 100 100
145 152 148 151 142 135 130 126 122 119 117 116 115 115 115 119 125 127 124 125 124 121 118 116 114 113 115 116 117 112 104 100 98 101 101 96 105 104 104 102 100 99 106
142 143 146 153 142 139 134 131 129 126 125 126 125 124 124 126 128 128 128 128 124 123 122 120 118 118 122 123 121 119 109 110 108 100 79 110 108 111 106 106 107 100 99
138 142 150 150 144 142 139 137 134 133 133 132 132 132 132 131 130 130 132 134 128 126 124 125 125 126 131 130 127 129 118 105 122 100 75 79 107 112 107 106 105 105 108
142 145 148 148 146 145 144 141 140 140 139 139 138 137 137 136 134 137 141 140 135 133 131 130 130 131 131 128 134 137 134 117 117 100 105 109 106 119 117 116 114 112 108
145 142 146 149 148 148 147 146 146 147 146 144 144 144 141 140 136 143 146 147 145 144 140 137 136 140 144 150 152 146 140 141 135 123 120 102 128 128 129 129 127 122 117
147 139 148 149 149 148 150 149 149 151 149 149 149 149 148 146 143 141 146 145 143 143 140 138 139 132 112 118 120 131 130 151 138 129 131 118 147 140 136 135 136 131 125
149 142 144 149 151 151 151 150 151 153 151 150 151 150 151 150 149 147 152 151 155 153 152 147 150 139 132 147 160 151 139 138 132 137 147 141 153 151 143 142 140 138 132
149 147 145 146 147 143 152 155 155 155 155 153 154 156 155 156 156 160 164 173 174 185 178 171 163 149 140 161 178 151 147 150 132 134 134 159 160 157 148 147 142 142 135
160 164 157 144 145 145 144 160 160 162 162 163 164 164 158 154 164 178 180 187 193 199 200 185 174 165 153 166 167 138 134 139 143 146 152 167 170 162 159 155 151 151 149
176 176 169 154 151 149 154 153 149 167 156 155 159 167 158 166 178 185 199 198 209 209 217 201 188 176 166 179 152 142 130 143 135 154 158 167 176 168 167 166 164 162 163
168 175 171 163 157 156 156 145 150 143 143 153 164 176 174 167 194 213 234 224 212 224 223 215 179 180 188 188 185 142 141 117 125 153 171 173 177 175 175 173 177 176 175
169 177 176 174 165 165 148 163 165 160 163 171 182 178 164 194 207 214 230 242 223 228 208 235 182 181 203 205 191 161 158 154 159 157 175 179 184 181 183 183 183 189 187
173 178 181 177 173 167 164 167 174 176 177 181 182 185 171 192 219 218 228 237 229 194 204 214 229 190 195 202 192 170 177 177 177 169 171 183 182 186 190 192 194 197 194
177 180 176 184 176 173 184 183 183 183 180 181 182 198 191 189 205 220 223 222 237 213 190 195 204 209 192 210 206 213 179 188 176 184 213 185 183 188 192 196 206 205 205
186 170 183 179 175 186 182 184 188 197 182 191 201 198 198 193 204 218 217 218 222 213 213 190 201 194 180 203 227 221 178 170 192 177 187 174 185 191 202 208 212 216 213
168 179 177 181 173 182 184 187 186 205 191 195 193 186 200 201 200 216 236 228 212 197 194 210 167 170 206 205 211 230 179 170 200 185 171 148 166 185 182 180 185 195 203
158 175 170 176 178 187 170 169 196 186 224 203 179 185 199 206 204 205 222 248 214 203 205 197 147 165 196 214 218 235 160 148 186 173 184 161 170 163 169 182 175 175 176
47 76 144 144 168 179 146 163 224 203 226 237 206 237 221 219 220 215 230 253 312 262 231 191 141 157 213 220 213 200 128 160 199 183 192 184 178 169 182 150 170 185 195
47 53 41 125 156 140 149 153 190 213 153 97 68 66 43 31 215 178 130 110 100 87 337 335 334 156 149 170 107 349 305 9 221 206 179 202 188 176 175 179 168 191 199
50 52 56 55 53 105 130 166 169 157 96 105 97 59 46 70 60 60 114 132 140 122 88 67 40 341 300 174 161 167 214 278 240 210 200 205 201 185 192 195 176 193 190
42 35 45 45 32 0 85 82 70 84 84 74 17 8 348 36 52 82 85 104 131 143 121 207 107 58 342 290 234 170 164 211 165 178 218 212 199 197 194 183 185 198 189
63 49 46 34 28 18 3 86 89 99 104 79 79 107 334 17 77 118 123 173 230 184 144 146 122 147 168 311 294 257 162 290 180 165 199 211 211 207 195 187 191 192 192
81 67 49 43 45 28 19 33 65 66 50 66 49 52 22 40 33 2 335 226 252 237 223 206 209 214 222 235 93 265 299 232 307 112 191 198 209 215 207 194 188 193 194
91 85 77 72 50 31 45 51 61 60 57 53 54 60 37 31 22 17 7 357 325 272 251 224 220 192 190 181 255 248 270 239 233 90 30 277 209 219 208 199 193 193 196